Terminal Aerodrome Forecast
Issued by NWS Blacksburg, VA

Current Version | Previous Version | Graphics & Text | Print | Product List | Glossary On
Versions: 1 2 3 4 5 6 7 8 9 10 11 12 13 14 15 16 17 18 19
000
FTUS41 KRNK 211753
TAFBLF
TAF
KBLF 211753Z 2118/2218 24013G25KT P6SM BKN050
      TEMPO 2118/2122 4SM -SHRA OVC025
     FM220000 23004KT P6SM BKN050
     FM220400 17005KT P6SM BKN025
     FM221200 18007KT P6SM BKN008
     FM221400 19008KT P6SM BKN050=

USA.gov is the U.S. government's official web portal to all federal, state and local government web resources and services.